GFSSW_sfc_rhum_273.txt.gz
RH
83 82 80 81 81 83 82 81 81 82 81 84 83 82 84 83 73 23 15 23 32 53 63 43 41 36 33 36 44 59 66 70 58 46 38 22 21 20 22 21 21 21 22 21 20
82 82 82 81 83 84 83 82 82 81 81 82 84 83 84 83 28 18 30 51 62 69 36 36 34 32 39 37 44 57 67 55 43 38 30 26 22 22 22 25 25 22 22 18 24
81 82 82 81 84 83 83 84 84 82 82 83 83 84 84 79 21 16 45 62 67 72 35 35 30 28 37 41 43 47 53 40 34 31 25 25 26 26 25 31 25 23 22 18 28
79 82 83 85 84 82 83 83 83 83 82 83 83 84 85 32 34 14 54 58 67 49 37 34 29 35 42 42 39 44 36 34 34 29 24 26 23 25 29 28 20 21 20 19 36
79 81 83 84 82 82 82 82 83 83 82 83 83 79 38 19 19 12 48 38 42 30 26 29 30 34 40 37 38 37 32 28 28 26 26 23 27 24 23 21 20 17 16 25 40
81 82 83 83 84 83 84 83 82 82 82 82 80 76 21 23 15 13 17 20 22 24 26 27 30 32 37 38 40 36 29 27 26 24 23 23 25 27 21 20 20 14 18 37 43
79 80 81 86 87 86 86 84 82 81 82 80 78 35 18 20 15 16 17 21 23 26 26 27 25 26 32 35 31 28 29 28 28 26 28 23 31 27 20 19 15 16 24 43 47
78 80 82 86 86 86 85 84 82 81 81 79 62 17 21 15 16 14 15 16 15 21 24 25 24 29 31 31 29 31 36 43 33 27 28 30 39 27 20 21 16 17 24 40 47
80 82 84 85 85 85 83 82 82 78 82 72 22 18 22 24 17 16 18 18 18 17 24 19 25 30 34 38 46 42 48 48 40 28 28 37 41 30 20 23 16 18 22 47 56
84 85 86 86 85 85 82 80 70 60 41 19 13 17 18 18 18 16 17 18 20 21 21 25 30 26 27 40 24 40 46 47 43 35 32 40 39 32 22 23 18 20 25 51 54
87 85 86 86 85 85 71 30 24 22 22 20 20 18 18 17 16 16 18 18 20 20 30 29 30 36 21 26 27 29 31 35 42 36 34 39 38 34 24 25 22 22 24 36 62
88 87 86 86 85 86 67 32 30 25 26 21 19 19 17 17 20 18 18 20 26 29 29 29 39 26 22 24 22 28 31 28 35 36 36 42 41 37 26 26 29 21 24 31 63
88 88 87 85 84 60 37 36 30 26 26 23 19 19 19 17 22 20 21 25 23 24 30 32 30 22 23 24 21 27 26 24 22 34 37 38 44 37 30 29 21 23 25 32 50
89 89 87 85 49 37 36 37 39 25 27 22 24 21 21 22 26 19 20 25 24 22 22 24 22 22 26 25 21 23 26 30 33 32 29 36 38 44 34 31 22 26 27 35 56
90 90 87 83 46 41 38 42 40 23 28 23 25 19 22 22 27 24 21 23 26 27 28 30 29 26 27 25 22 23 30 36 39 42 54 43 45 54 38 34 30 24 27 31 56
91 90 86 53 49 44 41 43 26 27 28 30 26 25 25 25 25 25 23 21 24 25 26 29 24 21 22 21 22 24 34 45 59 52 42 48 45 45 40 33 34 25 27 31 57
92 89 86 51 36 41 45 33 28 36 24 28 27 26 28 29 27 28 29 35 28 36 42 32 30 26 20 25 28 28 35 35 25 35 32 47 39 39 33 27 27 24 28 33 57
90 84 74 52 46 45 38 40 45 24 31 29 30 28 28 26 29 28 32 30 32 39 42 36 30 30 20 22 24 29 34 34 23 28 33 36 36 28 29 23 23 23 28 36 58
83 55 52 46 49 46 36 48 33 35 28 27 29 31 32 31 29 29 31 32 31 28 26 40 36 25 20 20 25 32 32 30 34 59 54 44 39 33 29 26 26 29 32 41 56
79 63 52 46 48 46 42 48 34 33 27 29 29 31 33 33 32 32 30 31 33 32 40 33 37 31 28 25 23 30 27 27 43 37 32 34 33 33 31 28 28 30 35 35 54
61 53 46 46 46 50 52 47 36 30 28 26 30 31 32 33 30 32 30 34 34 35 31 31 34 37 33 32 30 25 28 37 40 45 53 40 31 31 27 30 28 28 33 34 53
69 56 47 46 53 76 62 45 43 34 32 30 30 33 32 34 32 35 29 35 40 29 28 35 33 37 34 31 29 31 30 33 64 44 64 78 43 30 26 29 28 26 27 33 49
65 67 55 43 64 66 59 43 38 39 34 30 31 33 34 33 34 35 40 49 45 36 31 30 36 32 45 45 39 34 32 46 60 70 62 69 39 26 32 32 28 26 30 31 55
73 67 63 61 67 55 52 46 42 40 37 31 31 32 34 37 40 41 43 46 44 46 46 36 43 28 30 28 45 39 38 46 39 68 68 55 32 34 28 29 29 31 32 35 64
74 75 74 73 60 61 54 53 46 41 36 32 39 32 32 39 41 40 46 44 39 44 42 37 33 49 44 44 44 40 38 43 48 38 42 39 45 41 36 28 28 31 32 34 60
74 80 86 83 75 59 69 54 50 46 36 36 35 32 35 33 30 30 42 37 31 52 37 46 35 58 38 36 42 42 41 38 37 38 46 45 34 33 41 34 33 33 32 33 52
85 84 71 81 77 70 68 51 46 44 40 35 33 36 40 37 36 42 41 39 33 37 41 44 47 50 38 57 42 38 41 42 40 35 30 34 30 28 31 33 34 34 30 28 43

GFSSW_sfc_rhum_276.txt.gz
RH
82 82 82 81 80 82 82 83 82 82 83 81 83 85 85 85 66 20 16 25 33 60 61 38 40 32 34 38 49 61 68 73 56 47 41 24 22 23 23 21 22 23 24 24 24
81 82 82 81 81 84 81 82 83 81 82 82 82 85 86 84 29 19 34 54 68 70 31 35 38 32 40 40 46 59 70 60 44 42 30 27 24 22 23 25 25 23 20 24 35
80 80 82 81 83 85 84 81 81 83 80 82 82 85 85 79 22 18 48 64 67 67 30 35 27 29 39 43 45 48 53 42 36 30 25 26 28 26 26 32 25 24 22 22 44
80 81 83 84 85 85 84 83 81 81 83 81 83 82 82 32 35 16 56 59 71 40 36 32 29 35 43 44 40 43 35 36 35 30 26 27 25 28 29 31 22 23 20 25 46
82 81 81 83 80 81 84 84 83 81 82 82 82 79 38 20 20 13 47 44 36 34 27 32 32 36 40 41 40 36 34 28 30 27 27 24 28 26 25 24 22 18 21 32 45
79 81 81 81 83 82 84 84 81 82 81 83 79 75 21 23 16 14 19 21 24 25 29 30 32 34 37 38 40 36 29 28 26 25 24 24 27 27 22 22 18 16 26 43 47
77 79 80 84 85 86 84 82 82 84 83 82 76 30 18 20 16 17 16 21 25 26 28 29 28 27 33 34 30 29 30 30 29 27 29 24 32 28 22 19 17 18 36 48 51
78 78 81 86 86 84 85 84 82 84 84 80 64 18 21 16 17 15 17 16 18 23 26 26 25 30 31 32 30 33 38 44 36 28 29 33 40 29 23 17 17 18 37 47 52
83 81 82 85 86 85 84 84 82 77 78 74 25 18 19 25 17 16 18 18 18 22 25 20 26 32 36 41 46 45 47 50 42 29 29 37 41 32 23 21 17 19 26 51 58
87 88 86 86 87 86 84 82 72 64 44 20 13 17 18 19 18 17 17 19 20 22 23 24 28 30 34 34 22 38 56 46 48 36 33 39 40 37 24 25 18 20 24 45 54
89 89 89 87 87 86 74 30 25 23 24 20 21 19 19 18 17 16 19 18 21 22 30 31 31 40 25 30 27 30 33 33 41 38 35 40 40 38 27 27 23 22 24 35 51
90 89 89 88 84 87 71 34 31 26 28 23 21 20 18 18 20 19 18 22 26 30 31 30 40 27 20 24 24 32 36 35 36 40 36 47 42 43 31 27 27 22 24 29 57
92 90 89 86 85 57 39 39 38 26 27 23 20 20 20 18 23 22 21 24 25 27 32 33 31 23 24 25 23 28 30 27 24 36 41 38 45 41 32 31 27 25 25 29 46
93 92 89 87 47 41 41 43 42 23 26 21 25 22 22 22 25 20 21 24 25 24 25 28 23 22 27 26 21 22 27 31 34 37 37 38 35 55 38 32 26 27 27 29 49
94 93 90 83 54 44 43 45 45 20 29 24 25 20 24 22 25 24 22 23 27 29 30 41 29 26 28 26 22 23 31 38 41 45 56 45 44 51 41 35 34 26 28 29 46
95 93 89 59 50 44 45 47 26 25 29 32 26 26 26 26 27 27 24 22 25 26 27 30 26 22 22 21 21 27 37 44 59 53 38 59 48 40 42 34 38 31 26 29 47
95 92 89 60 35 43 46 31 28 31 24 28 29 27 28 30 28 28 28 37 27 35 47 34 32 28 20 24 28 28 34 35 23 32 28 49 43 36 36 33 31 29 26 30 52
94 85 72 62 51 47 39 39 46 26 32 30 30 30 28 26 30 31 32 31 36 37 43 38 28 30 21 22 26 29 30 34 22 27 30 36 35 26 31 26 26 27 28 32 57
87 60 53 50 50 46 36 48 34 36 32 30 31 31 32 31 29 31 32 31 30 33 27 44 37 26 20 20 25 32 31 30 36 64 49 39 35 36 31 27 28 28 32 38 57
87 63 53 48 52 45 41 49 37 35 30 31 30 30 32 34 32 32 31 31 34 33 50 47 38 33 28 25 24 30 28 26 41 36 33 36 33 28 31 29 28 30 35 38 49
64 54 45 52 48 50 55 48 37 34 31 29 31 33 32 33 32 34 31 34 35 34 34 37 35 44 36 32 28 26 28 39 41 46 53 40 28 31 26 29 27 28 33 37 42
69 61 50 48 55 81 63 46 46 36 34 33 33 32 32 36 34 35 31 34 39 30 28 40 32 34 41 33 31 31 28 34 63 44 68 79 41 43 26 27 29 28 28 36 39
67 67 59 45 66 68 63 48 44 41 36 33 34 33 34 34 34 35 38 49 45 35 30 33 36 30 44 50 43 35 32 47 60 68 61 67 38 29 31 31 32 28 29 34 37
73 69 65 64 70 57 57 49 45 42 39 33 33 35 37 38 42 39 41 47 45 44 44 35 39 28 33 29 42 38 37 50 43 70 66 51 33 34 27 28 30 29 29 33 42
71 77 76 75 65 67 58 53 49 45 41 38 40 36 33 40 42 39 46 42 40 47 43 35 34 47 42 39 43 40 37 46 48 38 39 36 42 32 31 29 28 28 31 33 48
77 81 90 86 78 66 70 56 53 48 40 41 39 35 37 34 32 32 42 39 33 51 38 46 34 58 38 38 47 46 45 41 38 40 40 44 35 34 52 38 32 31 32 31 38
91 88 75 82 80 74 69 55 48 50 44 38 37 40 45 38 39 46 40 38 36 39 40 42 45 48 35 55 48 37 41 46 44 41 32 35 28 30 32 34 34 34 30 28 29

GFSSW_sfc_rhum_279.txt.gz
RH
81 82 82 80 80 83 82 82 80 80 80 80 81 83 83 84 70 19 13 22 34 66 60 32 32 29 32 40 45 48 55 54 47 43 37 20 20 18 18 17 18 18 18 20 24
80 80 82 81 81 84 84 83 83 80 80 81 82 83 84 82 24 16 35 61 68 69 28 30 33 30 37 37 42 50 57 50 38 34 28 21 20 19 18 19 19 18 18 25 29
81 79 81 82 83 84 84 84 82 83 82 81 82 82 82 65 20 16 52 63 69 54 28 27 26 29 38 40 39 39 45 34 29 27 22 23 22 20 21 23 20 18 18 24 32
80 81 82 83 84 84 84 84 83 83 82 82 83 80 79 24 31 14 58 69 66 33 30 27 28 35 41 39 32 36 30 31 26 25 23 24 21 22 22 23 18 18 16 22 30
80 81 81 82 80 80 84 82 81 82 82 83 83 77 33 18 19 13 47 51 28 27 26 29 28 34 38 36 33 31 27 26 26 25 25 23 24 22 22 21 18 16 19 29 32
79 81 82 82 82 80 82 84 81 81 82 83 80 74 21 23 15 15 18 21 23 24 27 30 29 30 33 31 33 28 25 23 22 21 21 22 21 19 20 18 16 17 25 32 34
81 80 81 85 86 85 83 83 83 84 82 81 77 33 19 20 16 16 18 22 24 25 28 26 26 26 29 30 26 25 27 24 22 20 22 21 24 23 19 18 14 17 28 35 36
82 81 83 86 86 86 84 85 85 87 82 80 73 21 22 16 16 15 17 16 22 20 26 25 24 30 28 28 27 28 30 33 27 23 24 24 31 23 19 16 16 16 27 36 36
84 84 85 87 87 85 86 86 83 78 75 72 28 22 23 26 15 16 18 16 19 23 25 19 27 32 30 33 34 36 30 34 33 25 24 28 31 24 20 16 16 14 19 30 36
91 90 89 89 87 86 87 82 73 60 38 23 13 19 19 18 18 17 17 18 20 24 24 24 26 29 32 23 20 19 30 31 35 30 26 31 32 28 20 19 17 14 15 28 35
93 92 91 89 86 86 70 29 26 25 26 22 23 19 18 16 17 16 18 18 21 23 29 28 28 33 24 27 22 25 25 24 29 32 29 33 32 31 24 23 20 16 15 23 31
93 93 92 88 83 87 62 32 35 31 30 25 21 19 18 17 19 18 18 21 26 30 32 28 34 26 19 23 23 25 25 24 27 34 30 34 34 33 30 23 23 17 16 18 29
94 94 92 87 85 54 41 44 44 34 28 24 20 19 19 16 21 21 20 23 26 28 31 31 30 22 24 24 23 25 24 23 20 27 32 31 30 30 25 23 24 19 18 18 24
95 94 93 90 47 47 45 44 47 32 26 23 25 22 20 22 26 20 20 23 24 25 26 28 23 24 28 25 22 24 25 27 29 30 28 29 24 31 27 26 22 22 19 18 28
95 95 93 82 53 45 44 47 48 20 30 25 25 19 23 22 23 23 22 24 26 26 30 32 28 28 29 26 23 24 31 33 32 34 36 31 28 24 30 28 26 22 20 21 25
95 94 92 63 53 42 44 46 26 25 29 32 27 26 24 25 25 26 23 22 27 26 27 29 25 22 23 22 22 28 32 41 46 40 26 34 31 21 27 25 24 26 21 21 21
93 93 91 65 37 46 47 30 28 31 26 30 30 28 27 29 27 26 28 30 25 29 33 34 30 27 21 25 27 28 29 31 23 28 22 36 32 26 26 28 25 24 22 21 22
93 89 67 64 64 56 38 32 38 28 28 31 32 30 29 26 29 30 32 28 33 31 37 33 26 29 21 23 26 25 27 31 25 22 24 30 30 23 24 22 20 23 24 24 27
88 67 52 49 54 47 37 42 34 33 31 31 32 32 34 32 30 32 30 30 28 31 22 35 36 24 20 20 24 28 25 26 32 40 34 28 25 26 23 20 21 24 26 28 32
92 64 54 52 54 43 42 50 37 33 31 32 31 30 33 35 33 32 31 30 34 32 34 31 30 31 27 24 24 26 26 26 34 45 29 22 25 22 27 26 23 23 26 28 35
66 58 46 54 48 50 56 50 39 32 33 30 32 35 33 34 32 33 31 33 34 33 32 31 28 34 34 30 26 24 24 33 33 36 38 27 24 22 22 26 23 20 23 28 31
69 72 51 52 55 80 60 48 49 38 37 34 34 33 32 36 36 37 32 32 37 31 29 32 29 29 32 30 28 28 24 30 57 43 49 57 33 25 22 22 26 23 23 26 29
71 68 59 48 66 68 63 52 47 42 38 35 34 34 36 36 37 37 37 47 44 31 30 33 34 28 29 34 36 31 29 38 49 53 54 61 32 25 23 23 25 25 24 24 28
77 75 66 66 71 56 56 51 46 42 40 35 35 36 37 39 41 39 41 47 45 42 43 35 35 27 31 25 37 36 34 42 35 54 57 39 26 29 28 26 25 27 25 24 27
71 79 77 77 70 61 55 54 51 46 43 40 41 35 34 40 42 41 45 44 39 49 43 34 34 37 34 31 37 34 32 43 50 32 35 28 36 24 25 25 22 23 25 25 27
90 82 90 83 75 68 72 57 52 49 42 44 43 37 39 36 33 34 42 40 35 48 38 46 36 43 35 35 44 44 44 38 36 35 35 30 28 26 27 27 24 22 24 24 25
87 88 76 83 81 72 71 58 51 50 46 40 38 41 45 39 38 44 41 40 37 41 39 42 43 43 32 42 40 36 38 43 42 38 29 32 25 26 27 33 31 26 25 23 24

GFSSW_sfc_rhum_285.txt.gz
RH
81 80 79 79 78 80 81 79 80 79 79 79 81 82 83 83 75 18 8 22 29 66 58 20 20 18 18 24 28 30 28 21 26 25 30 21 22 17 15 16 14 13 13 14 16
81 80 81 79 79 83 83 82 81 81 80 80 81 82 82 82 16 8 36 62 71 66 22 23 22 20 20 21 21 27 26 33 28 24 25 21 21 18 17 16 16 16 14 14 15
80 80 80 80 81 84 83 82 81 81 81 81 82 82 81 52 14 9 56 71 63 53 17 18 18 18 23 21 20 23 27 26 26 22 20 20 20 16 18 23 17 17 16 15 13
81 81 81 82 83 82 84 84 82 82 82 82 83 81 76 17 17 9 50 57 48 19 16 17 18 21 23 22 18 23 22 22 23 20 20 20 17 18 19 21 14 14 14 14 13
83 82 83 84 81 80 83 84 82 82 82 83 83 80 25 10 10 10 46 40 15 16 18 18 17 19 22 19 17 20 20 19 19 19 19 18 19 18 18 15 12 12 14 13 12
85 84 84 84 84 82 84 85 81 83 85 84 81 78 13 12 8 9 11 12 13 13 15 17 16 16 20 19 20 19 18 18 18 18 18 19 19 18 16 13 12 13 14 13 14
88 87 86 87 87 86 85 86 84 86 86 82 79 21 9 12 8 9 11 14 14 14 17 15 14 16 16 20 17 17 20 19 18 18 19 18 21 20 15 13 13 12 12 14 16
89 89 90 91 89 87 86 87 88 87 83 79 71 10 11 9 8 9 9 11 12 14 15 14 14 17 16 17 17 18 18 21 18 18 18 19 24 17 13 13 14 12 12 16 16
90 91 92 92 92 89 87 87 84 73 66 64 16 8 11 20 10 9 9 11 12 12 12 12 14 18 18 18 17 18 13 14 22 17 18 19 20 18 13 13 14 12 12 15 15
93 94 94 93 93 90 88 84 73 56 34 13 8 11 10 10 10 9 9 11 12 13 14 14 14 16 15 14 14 12 10 10 14 19 19 19 19 18 15 14 14 13 11 13 14
94 94 94 93 92 89 52 17 17 16 13 13 12 11 10 9 10 10 10 11 11 12 14 15 16 15 14 14 12 11 11 12 14 19 19 18 17 15 18 16 16 14 11 11 12
94 94 93 92 91 89 46 17 24 24 18 14 12 10 10 9 11 10 10 12 13 14 14 15 16 14 12 13 13 12 12 12 16 18 17 14 16 15 15 18 16 15 12 11 11
92 93 92 92 88 47 22 27 24 22 17 16 12 12 11 10 11 12 11 11 14 15 13 15 17 13 14 14 14 12 14 12 12 14 16 18 21 18 16 16 16 14 14 12 12
89 93 92 93 50 22 24 23 23 22 16 17 15 13 12 12 15 12 12 14 13 14 15 15 14 15 16 15 13 16 13 14 16 18 16 16 14 17 16 18 18 17 15 14 13
88 92 92 97 30 22 24 21 23 21 20 15 14 12 12 14 15 15 13 15 15 14 15 19 15 16 17 16 14 16 16 17 19 19 18 20 18 15 14 16 15 15 15 15 13
86 90 92 51 26 22 22 23 23 20 20 19 15 15 14 15 14 15 14 14 15 16 16 17 14 14 14 13 13 17 18 20 23 21 24 18 15 15 13 11 11 12 13 14 13
95 90 81 46 23 24 24 22 19 18 14 17 17 16 15 15 15 15 16 16 16 20 19 18 16 14 12 15 17 18 19 24 27 29 18 18 17 11 11 12 11 12 12 13 13
95 93 70 37 27 27 23 19 23 16 14 17 17 16 17 15 14 15 15 16 16 16 14 15 20 18 13 14 16 15 18 20 28 20 16 21 22 15 11 13 13 13 12 14 15
95 43 35 26 27 26 24 23 14 14 14 17 18 18 17 17 16 16 15 14 14 14 16 14 19 15 13 11 14 19 21 19 19 18 18 15 12 17 14 13 15 16 16 17 16
52 40 33 25 26 23 25 30 16 16 18 18 19 16 17 18 18 17 16 16 18 18 16 15 17 18 17 14 16 16 16 22 23 49 27 10 11 11 19 14 13 15 16 18 17
50 43 31 25 23 23 26 21 18 17 18 18 18 19 17 18 17 16 15 20 18 20 17 16 16 23 21 21 17 18 16 16 21 20 26 20 12 9 10 12 12 13 14 16 18
45 41 29 25 31 23 24 20 38 21 20 21 19 18 18 18 19 18 18 18 18 18 18 15 17 16 16 18 17 16 14 14 32 34 21 34 28 9 9 10 11 12 12 14 16
43 36 29 27 38 31 26 28 27 24 22 21 20 20 18 20 23 21 21 30 25 20 19 18 17 18 23 23 22 21 18 15 22 26 33 45 22 11 11 12 12 13 12 12 14
45 44 37 32 29 31 30 30 29 26 22 20 18 19 21 21 20 23 22 30 29 21 40 30 19 18 23 21 21 27 27 20 18 32 32 24 16 14 15 16 12 12 14 13 13
48 45 42 44 36 34 28 30 30 29 25 22 22 22 21 24 21 24 21 28 27 41 25 23 23 18 17 16 18 18 18 25 33 18 23 18 18 14 14 14 12 13 12 14 14
52 50 43 48 43 38 44 36 34 28 25 27 26 22 20 22 20 20 20 22 22 29 24 22 24 22 21 17 18 22 20 21 22 22 20 18 20 14 13 11 10 10 12 14 15
52 47 47 61 40 41 42 36 32 27 24 23 23 24 24 21 18 18 19 20 20 25 27 26 28 28 27 20 22 26 24 22 22 19 19 23 17 13 17 16 15 16 14 14 15

GFSSW_sfc_rhum_291.txt.gz
RH
82 79 78 78 78 82 81 80 79 80 81 82 82 84 84 84 75 32 21 33 53 69 61 31 30 28 34 42 41 44 60 62 48 47 40 30 28 22 21 21 24 26 30 29 26
84 83 81 80 82 85 85 83 82 81 81 82 82 84 84 83 35 21 34 61 68 73 39 32 36 32 37 38 32 41 64 52 36 37 36 31 28 24 23 24 27 28 26 25 23
82 81 82 83 86 86 86 85 85 84 83 82 81 83 84 78 29 20 52 59 64 62 42 32 26 29 38 30 31 36 47 37 33 32 30 29 29 25 26 32 26 28 27 25 28
86 86 85 87 87 86 86 86 85 84 85 84 83 84 82 36 24 18 49 56 58 40 32 26 28 38 38 33 29 34 28 31 36 28 29 30 24 27 29 31 24 24 24 25 22
89 89 89 89 88 86 86 87 84 84 86 85 86 83 38 24 19 16 45 41 26 21 24 27 31 33 36 28 27 32 30 25 29 27 26 24 29 28 27 25 22 22 22 22 22
90 90 90 90 91 90 89 88 85 86 87 86 84 85 36 23 12 14 16 18 18 21 23 22 28 25 26 28 31 29 27 27 29 28 28 30 30 26 27 22 22 22 23 24 23
89 90 90 92 93 92 91 91 88 88 88 85 82 38 23 18 13 15 15 20 21 25 25 22 24 23 26 30 24 25 30 31 28 26 31 28 34 29 24 21 23 24 25 22 23
90 90 91 93 93 93 92 92 90 88 87 82 79 28 23 15 16 12 15 17 16 17 20 22 20 23 26 27 25 30 32 44 32 27 29 27 33 30 23 22 23 23 25 24 25
92 91 92 93 93 92 92 89 85 80 75 69 33 24 22 23 15 14 14 17 17 17 20 12 22 28 29 33 37 38 37 38 36 26 26 29 36 27 23 21 23 23 25 26 28
94 94 93 93 93 92 92 85 73 68 41 26 19 19 18 17 17 15 16 18 20 23 23 26 28 35 36 37 34 28 25 21 37 29 28 32 31 27 24 22 24 24 24 28 28
92 92 92 92 92 92 73 38 31 31 34 24 19 18 14 16 15 16 15 18 20 23 27 30 28 34 29 25 23 23 24 24 35 26 29 31 31 29 24 23 25 28 25 27 28
88 90 90 90 92 92 83 37 39 37 36 21 15 15 14 14 17 16 16 22 26 26 27 28 31 22 21 23 24 25 24 25 29 26 26 26 25 24 25 22 22 24 27 24 27
89 90 89 90 90 66 36 37 31 36 37 26 19 16 17 15 20 19 18 20 24 24 24 28 25 20 21 25 24 25 26 24 22 27 28 27 31 34 30 27 25 26 27 23 22
94 94 92 92 56 42 36 30 33 33 37 28 23 20 17 21 26 17 18 25 23 26 27 28 22 22 27 26 22 29 25 24 26 32 34 29 29 33 32 33 27 27 28 27 22
93 95 95 92 79 41 34 34 32 35 45 25 22 17 17 21 23 24 21 23 29 25 23 29 26 28 29 25 19 25 28 28 33 36 39 38 36 30 33 31 33 32 29 28 26
90 94 96 78 77 42 35 35 38 41 42 28 23 23 21 22 22 25 24 24 26 28 26 29 22 22 24 21 22 26 28 34 39 44 52 36 31 26 32 26 28 32 30 27 27
89 92 93 70 56 42 40 40 43 44 25 27 26 23 23 24 23 23 25 29 29 34 38 31 28 22 20 27 27 28 38 57 61 54 45 28 27 23 23 22 21 25 30 29 28
91 93 85 64 65 50 44 40 53 29 25 24 24 23 26 23 22 22 27 30 27 28 32 35 33 29 21 24 30 31 33 51 36 46 40 30 32 22 26 25 24 25 28 29 30
94 90 81 59 63 42 45 56 35 32 23 25 25 29 29 25 24 26 26 28 26 22 26 31 35 23 20 18 24 33 38 32 31 47 45 41 33 26 27 26 24 24 26 30 30
99 85 67 38 36 44 48 54 32 27 25 25 29 26 30 28 25 27 27 27 27 27 26 29 30 26 24 22 25 27 29 37 52 47 52 42 33 27 28 24 25 25 25 30 32
95 79 49 36 40 46 54 46 29 25 25 28 34 32 26 26 26 28 27 30 29 29 28 30 26 35 31 30 30 27 28 29 36 57 51 53 31 24 21 24 21 25 26 28 32
90 73 46 40 49 54 48 31 40 27 30 34 30 30 31 30 28 29 32 33 29 27 26 28 32 36 32 28 27 27 26 29 68 48 51 82 44 26 21 24 22 19 21 27 26
85 69 47 44 66 64 46 34 34 35 32 32 32 29 30 32 35 33 40 44 38 32 30 27 30 39 38 45 35 29 28 25 45 68 63 73 42 22 19 18 18 20 22 24 27
89 73 61 55 62 58 54 45 38 38 36 33 30 31 33 33 31 36 40 42 41 38 53 42 35 35 45 38 39 36 35 30 33 72 58 57 32 18 23 29 27 23 22 25 27
91 79 68 78 66 63 60 53 48 42 36 34 37 34 33 41 36 34 43 42 42 47 39 34 35 38 33 32 32 31 34 37 38 32 41 23 41 25 27 25 23 25 25 25 26
87 78 74 81 60 63 67 56 47 46 39 39 40 39 36 38 34 37 37 42 36 51 38 38 38 44 38 30 31 34 33 35 35 28 32 28 28 19 19 26 29 30 29 29 27
93 76 72 81 68 68 66 54 47 42 39 35 33 38 39 38 35 33 32 33 34 41 45 41 45 49 51 37 37 40 35 34 34 37 31 38 25 26 30 29 30 31 32 30 26